Morris, IL

4:46 AM CDT on March 23, 2017 (GMT -0500)
Morris

Weather History for KC09 - September, 2014

Change the Weather History Date:

Saturday, September 20, 2014

  Actual Average (KARR) Record (KARR)
Temperature  
Mean Temperature 67 °F -  
Max Temperature 81 °F 71 °F 86 °F (2016)
Min Temperature 54 °F 46 °F 34 °F (2003)
Cooling Degree Days 2    
Growing Degree Days 17 (Base 50)    
Moisture  
Dew Point 63 °F    
Average Humidity 87    
Maximum Humidity 100    
Minimum Humidity 63    
Precipitation  
Precipitation 0.00 in - - ()
Sea Level Pressure  
Sea Level Pressure 29.87 in    
Wind  
Wind Speed 6 mph (SSW)    
Max Wind Speed 15 mph    
Max Gust Speed 21 mph    
Visibility 8 miles    
Events Rain , Thunderstorm    
Averages and records for this station are not official NWS values.
T = Trace of Precipitation, MM = Missing Value Source: NWS Daily Summary

Daily Weather History Graph

Daily Weather History Graph

Search for Another Location

Airport or City:

Trip Planner

Search our weather history database for the weather conditions in past years. The results will help you decide how hot, cold, wet, or windy it might be!

Date:

Astronomy

Sep. 20, 2014 Rise Set
Actual Time 6:39 AM CDT 6:54 PM CDT
Civil Twilight 6:11 AM CDT 7:21 PM CDT
Nautical Twilight 5:38 AM CDT 7:54 PM CDT
Astronomical Twilight 5:05 AM CDT 8:27 PM CDT
Moon 3:16 AM CDT (9/20) 4:59 PM CDT (9/20)
Length of Visible Light 13h 10m
Length of Day
12h 15m
Waning Crescent, 11% of the Moon is Illuminated
Sep 20
Waning Crescent
Sep 24
New
Oct 1
First Quarter
Oct 8
Full
Oct 15
Last Quarter

Hourly Weather History & Observations

Time (CDT) Temp. Heat Index Dew Point Humidity Pressure Visibility Wind Dir Wind Speed Gust Speed Precip Events Conditions
12:15 AM 59.4 °F - 51.8 °F 76% 29.95 in 10.0 mi South 5.8 mph - N/A   Clear
12:35 AM 57.7 °F - 51.8 °F 81% 29.94 in 10.0 mi South 5.8 mph - N/A   Clear
12:55 AM 56.8 °F - 51.8 °F 83% 29.93 in 10.0 mi South 5.8 mph - N/A   Clear
1:15 AM 56.5 °F - 52.0 °F 85% 29.94 in 10.0 mi South 3.5 mph - N/A   Clear
1:35 AM 56.3 °F - 52.3 °F 87% 29.96 in 10.0 mi SSW 3.5 mph - N/A   Clear
1:55 AM 54.7 °F - 52.2 °F 91% 29.96 in 10.0 mi South 4.6 mph - N/A   Clear
2:15 AM 55.4 °F - 52.2 °F 89% 29.96 in 10.0 mi South 4.6 mph - N/A   Clear
2:35 AM 54.5 °F - 52.5 °F 93% 29.95 in 10.0 mi SSE 5.8 mph - N/A   Clear
2:55 AM 54.9 °F - 53.2 °F 94% 29.95 in 10.0 mi South 5.8 mph - N/A   Clear
3:15 AM 54.9 °F - 53.6 °F 96% 29.94 in 10.0 mi SSE 4.6 mph - N/A   Clear
3:35 AM 55.2 °F - 54.1 °F 96% 29.93 in 10.0 mi South 5.8 mph - N/A   Clear
3:55 AM 56.3 °F - 54.5 °F 94% 29.94 in 10.0 mi SSE 4.6 mph - N/A   Clear
4:15 AM 56.1 °F - 54.5 °F 94% 29.93 in 7.0 mi South 4.6 mph - N/A   Clear
4:35 AM 55.9 °F - 54.5 °F 95% 29.94 in 7.0 mi Calm Calm - N/A   Clear
4:55 AM 55.8 °F - 54.5 °F 96% 29.95 in 7.0 mi SSE 4.6 mph - N/A   Clear
5:15 AM 55.4 °F - 55.0 °F 99% 29.94 in 7.0 mi SSE 4.6 mph - N/A   Clear
5:35 AM 56.3 °F - 55.6 °F 97% 29.94 in 7.0 mi SSE 4.6 mph - N/A   Clear
5:55 AM 56.5 °F - 55.6 °F 97% 29.96 in 10.0 mi Calm Calm - N/A   Scattered Clouds
6:15 AM 56.1 °F - 55.6 °F 98% 29.94 in 7.0 mi South 5.8 mph - N/A   Scattered Clouds
6:35 AM 56.5 °F - 56.3 °F 99% 29.95 in 7.0 mi South 4.6 mph - N/A   Scattered Clouds
6:55 AM 57.6 °F - 56.8 °F 97% 29.96 in 7.0 mi South 4.6 mph - N/A   Mostly Cloudy
7:15 AM 59.0 °F - 57.4 °F 94% 29.95 in 7.0 mi South 3.5 mph - N/A   Mostly Cloudy
7:35 AM 59.5 °F - 57.9 °F 94% 29.93 in 7.0 mi South 5.8 mph - N/A   Scattered Clouds
7:55 AM 61.5 °F - 58.5 °F 90% 29.93 in 10.0 mi SSW 5.8 mph - N/A   Scattered Clouds
8:15 AM 63.7 °F - 59.9 °F 87% 29.93 in 10.0 mi SW 10.4 mph - N/A   Mostly Cloudy
8:35 AM 64.6 °F - 60.1 °F 85% 29.93 in 10.0 mi SSW 10.4 mph 17.3 mph N/A   Mostly Cloudy
8:55 AM 66.2 °F - 60.8 °F 83% 29.92 in 10.0 mi SSW 11.5 mph 16.1 mph N/A   Scattered Clouds
9:15 AM 67.3 °F - 61.3 °F 81% 29.91 in 10.0 mi SW 12.7 mph - N/A   Clear
9:35 AM 68.5 °F - 61.7 °F 79% 29.90 in 10.0 mi SSW 12.7 mph 19.6 mph N/A   Clear
9:55 AM 70.5 °F - 62.4 °F 75% 29.89 in 10.0 mi SSW 12.7 mph 20.7 mph N/A   Clear
10:15 AM 72.1 °F - 63.0 °F 73% 29.87 in 10.0 mi SSW 15.0 mph 19.6 mph N/A   Clear
10:35 AM 73.8 °F - 64.2 °F 72% 29.87 in 10.0 mi SSW 12.7 mph 19.6 mph N/A   Clear
10:55 AM 75.6 °F - 64.9 °F 69% 29.88 in 10.0 mi SSW 13.8 mph 17.3 mph N/A   Clear
11:15 AM 77.0 °F - 66.2 °F 69% 29.88 in 10.0 mi SSW 12.7 mph - N/A   Clear
11:35 AM 76.3 °F - 65.5 °F 69% 29.87 in 10.0 mi SW 9.2 mph 17.3 mph N/A   Clear
11:55 AM 78.8 °F - 66.2 °F 65% 29.87 in 10.0 mi SW 13.8 mph 18.4 mph N/A   Clear
12:15 PM 78.1 °F - 66.6 °F 68% 29.87 in 10.0 mi SW 10.4 mph 17.3 mph N/A   Clear
12:35 PM 79.3 °F - 66.7 °F 65% 29.87 in 10.0 mi SSW 10.4 mph - N/A   Clear
12:55 PM 80.6 °F 82.9 °F 66.9 °F 63% 29.85 in 10.0 mi SW 11.5 mph 16.1 mph N/A Thunderstorm Clear
1:15 PM 78.6 °F - 66.4 °F 66% 29.86 in 10.0 mi WSW 9.2 mph 17.3 mph N/A   Mostly Cloudy
1:35 PM 77.9 °F - 66.4 °F 68% 29.88 in 10.0 mi West 8.1 mph - N/A   Overcast
1:55 PM 73.6 °F - 67.8 °F 82% 29.86 in 4.0 mi WNW 5.8 mph 17.3 mph N/A Rain , Thunderstorm Heavy Thunderstorms and Rain
2:15 PM 73.0 °F - 70.7 °F 92% 29.86 in 7.0 mi West 6.9 mph - N/A Rain , Thunderstorm Light Thunderstorms and Rain
2:35 PM 74.5 °F - 70.9 °F 88% 29.85 in 7.0 mi WSW 4.6 mph - N/A   Mostly Cloudy
2:55 PM 77.2 °F - 69.6 °F 77% 29.85 in 10.0 mi West 11.5 mph 17.3 mph N/A   Mostly Cloudy
3:15 PM 77.2 °F - 69.3 °F 76% 29.84 in 10.0 mi West 12.7 mph - N/A   Mostly Cloudy
3:35 PM 77.0 °F - 68.4 °F 75% 29.83 in 10.0 mi West 11.5 mph 18.4 mph N/A   Overcast
3:55 PM 71.8 °F - 69.8 °F 93% 29.83 in 5.0 mi West 10.4 mph - N/A Rain Light Rain
4:15 PM 71.6 °F - 68.9 °F 91% 29.80 in 7.0 mi West 4.6 mph - N/A Rain Light Rain
4:35 PM 72.5 °F - 69.4 °F 90% 29.81 in 10.0 mi SW 8.1 mph - N/A   Clear
4:55 PM 73.6 °F - 65.5 °F 76% 29.81 in 10.0 mi WSW 6.9 mph - N/A   Clear
5:15 PM 73.6 °F - 66.2 °F 78% 29.81 in 10.0 mi WSW 4.6 mph - N/A   Clear
5:35 PM 74.3 °F - 66.9 °F 78% 29.80 in 10.0 mi WSW 5.8 mph - N/A   Clear
5:55 PM 73.9 °F - 67.3 °F 80% 29.81 in 10.0 mi WSW 4.6 mph - N/A   Clear
6:15 PM 73.6 °F - 68.0 °F 83% 29.81 in 10.0 mi WSW 3.5 mph - N/A   Scattered Clouds
6:35 PM 72.0 °F - 68.2 °F 88% 29.82 in 10.0 mi Calm Calm - N/A   Scattered Clouds
6:55 PM 70.5 °F - 68.7 °F 94% 29.81 in 10.0 mi SSW 3.5 mph - N/A   Scattered Clouds
7:15 PM 69.8 °F - 69.6 °F 99% 29.82 in 7.0 mi SSW 4.6 mph - N/A   Scattered Clouds
7:35 PM 69.8 °F - 69.8 °F 100% 29.82 in 7.0 mi SSW 4.6 mph - N/A   Scattered Clouds
7:55 PM 68.9 °F - 68.9 °F 100% 29.82 in 7.0 mi SSW 3.5 mph - N/A   Clear
8:15 PM 68.7 °F - 68.7 °F 100% 29.81 in 5.0 mi SSW 4.6 mph - N/A   Clear
8:35 PM 68.9 °F - 68.9 °F 100% 29.81 in 5.0 mi SW 4.6 mph - N/A   Clear
8:55 PM 68.4 °F - 68.4 °F 100% 29.80 in 5.0 mi SW 3.5 mph - N/A   Clear
9:15 PM 68.7 °F - 68.7 °F 100% 29.79 in 5.0 mi SW 3.5 mph - N/A   Clear
9:35 PM 68.0 °F - 68.0 °F 100% 29.79 in 4.0 mi SW 3.5 mph - N/A   Scattered Clouds
9:55 PM 68.0 °F - 68.0 °F 100% 29.79 in 2.5 mi SW 4.6 mph - N/A   Scattered Clouds
10:15 PM 67.1 °F - 67.1 °F 100% 29.78 in 2.5 mi SW 3.5 mph - N/A   Clear
10:35 PM 68.4 °F - 68.4 °F 100% 29.79 in 4.0 mi SW 8.1 mph - N/A   Scattered Clouds
10:55 PM 69.4 °F - 68.2 °F 96% 29.78 in 7.0 mi WSW 10.4 mph - N/A Rain Rain
11:35 PM 66.7 °F - 66.7 °F 100% 29.78 in 10.0 mi WSW 5.8 mph - N/A   Clear
11:55 PM 67.1 °F - 67.1 °F 100% 29.76 in 7.0 mi SW 6.9 mph - N/A   Clear